EW2137 Weather Reports


Display with metric or nautical units.
time (UTC)temp
F
wind
direction
speed
MPH
gust
MPH
rain 1hr
in
rain 24hr
in
rain mn
in
humidity
%
barometer
mb
20260902091504 57 240 9.0 13.0 0.00 0.00 0.00 72 1006.0
20260902090002 58 238 13.0 19.0 0.00 0.00 0.00 70 1006.2
20260902084502 58 236 7.0 13.0 0.00 0.00 0.00 73 1006.0
20260902083057 59 248 13.0 20.0 0.00 0.00 0.00 70 1006.0
20260902081559 59 264 11.0 19.0 0.00 0.00 0.00 66 1006.1
20260902080058 60 244 14.0 22.0 0.00 0.00 0.00 65 1006.2
20260902074555 60 252 15.0 22.0 0.00 0.00 0.00 65 1005.9
20260902073054 60 246 15.0 22.0 0.00 0.00 0.00 66 1006.1
20260902071550 60 230 15.0 25.0 0.00 0.00 0.00 66 1005.9
20260902070046 59 227 13.0 22.0 0.00 0.00 0.00 65 1006.1
20260902064547 60 247 18.0 24.0 0.00 0.00 0.00 63 1005.8
20260902063055 61 250 20.0 28.0 0.00 0.00 0.00 62 1006.0
20260902061542 60 260 15.0 23.0 0.00 0.00 0.00 62 1005.9
20260902060041 61 242 18.0 26.0 0.00 0.00 0.00 60 1005.9
20260902054541 61 249 20.0 35.0 0.00 0.00 0.00 58 1005.9
20260902053040 61 245 22.0 31.0 0.00 0.00 0.00 59 1005.7
20260902051537 62 255 22.0 31.0 0.00 0.00 0.00 57 1005.5
20260902050037 62 247 21.0 33.0 0.00 0.00 0.00 58 1005.5
20260902044536 62 240 22.0 33.0 0.00 0.00 0.00 57 1005.2
20260902043042 62 249 22.0 33.0 0.00 0.00 0.00 57 1005.4
20260902041535 63 261 25.0 38.0 0.00 0.00 0.00 55 1005.0
20260902040035 63 259 27.0 33.0 0.00 0.00 0.00 55 1004.8
20260902034536 63 261 24.0 32.0 0.00 0.00 0.00 54 1004.8
20260902033033 63 256 24.0 32.0 0.00 0.00 0.00 55 1004.6
20260902031533 63 267 24.0 33.0 0.00 0.00 0.00 54 1004.3
20260902030037 63 255 23.0 35.0 0.00 0.00 0.00 54 1004.3
20260902024533 64 271 24.0 32.0 0.00 0.00 0.00 54 1004.2
20260902023041 64 260 24.0 33.0 0.00 0.00 0.00 54 1004.0
20260902021541 65 256 22.0 29.0 0.00 0.00 0.00 51 1003.9
20260902020035 65 254 21.0 29.0 0.00 0.00 0.00 50 1003.9
20260902014530 67 264 24.0 32.0 0.00 0.00 0.00 47 1003.5
20260902013030 68 254 24.0 35.0 0.00 0.00 0.00 43 1003.7
20260902011529 69 248 24.0 33.0 0.00 0.00 0.00 42 1003.4
20260902010028 70 251 27.0 33.0 0.00 0.00 0.00 41 1003.1
20260902004528 70 248 21.0 30.0 0.00 0.00 0.00 41 1003.0
20260902003027 71 266 20.0 28.0 0.00 0.00 0.00 40 1003.1
20260902001528 70 257 19.0 29.0 0.00 0.00 0.00 41 1003.0
20260902000026 71 267 21.0 27.0 0.00 0.00 0.00 44 1003.1
20260901234526 71 256 17.0 26.0 0.00 0.00 0.00 45 1003.1
20260901233025 70 235 21.0 30.0 0.00 0.00 0.00 45 1003.2
20260901231525 72 257 19.0 28.0 0.00 0.00 0.00 44 1003.2
20260901230034 73 225 19.0 27.0 0.00 0.00 0.00 43 1003.1
20260901224528 74 242 21.0 28.0 0.00 0.00 0.00 42 1003.0
20260901223024 75 250 20.0 26.0 0.00 0.00 0.00 40 1003.0
20260901221531 76 252 18.0 28.0 0.00 0.00 0.00 37 1003.0
20260901220049 75 246 17.0 28.0 0.00 0.00 0.00 39 1002.9
20260901214521 75 265 21.0 25.0 0.00 0.00 0.00 38 1003.0
20260901213049 75 250 18.0 28.0 0.00 0.00 0.00 38 1003.2
20260901211516 74 222 18.0 28.0 0.00 0.00 0.00 40 1003.3
20260901210017 74 226 19.0 27.0 0.00 0.00 0.00 40 1003.5
20260901204514 74 215 20.0 28.0 0.00 0.00 0.00 40 1003.5
20260901203036 73 247 18.0 29.0 0.00 0.00 0.00 40 1003.7
20260901201512 73 260 18.0 23.0 0.00 0.00 0.00 40 1003.8
20260901200013 72 224 19.0 27.0 0.00 0.00 0.00 43 1004.0
20260901194508 71 262 19.0 27.0 0.00 0.00 0.00 44 1004.2
20260901193007 70 237 19.0 25.0 0.00 0.00 0.00 46 1004.3
20260901191505 70 241 18.0 26.0 0.00 0.00 0.00 47 1004.6
20260901190007 69 219 17.0 27.0 0.00 0.00 0.00 49 1004.8
20260901184503 67 257 18.0 26.0 0.00 0.00 0.00 52 1004.8
20260901183001 66 228 18.0 28.0 0.00 0.00 0.00 54 1004.9
20260901181602 66 244 22.0 27.0 0.00 0.00 0.00 54 1004.9
20260901180100 65 240 21.0 28.0 0.00 0.00 0.00 57 1005.1
20260901174601 64 236 21.0 27.0 0.00 0.00 0.00 60 1005.0
20260901173103 63 229 20.0 25.0 0.00 0.00 0.00 61 1004.9
20260901171558 63 221 20.0 26.0 0.00 0.00 0.00 62 1004.8
20260901170106 63 237 20.0 28.0 0.00 0.00 0.00 63 1004.8
20260901164606 62 220 18.0 25.0 0.00 0.00 0.00 65 1005.0
20260901163056 61 240 20.0 27.0 0.00 0.00 0.00 66 1005.0
20260901161555 61 240 21.0 29.0 0.00 0.00 0.00 67 1004.9
20260901160056 61 226 21.0 29.0 0.00 0.00 0.00 68 1004.9
20260901154552 61 227 23.0 29.0 0.00 0.00 0.00 68 1004.8
20260901153050 61 238 19.0 24.0 0.00 0.00 0.00 68 1004.6
20260901151550 60 236 19.0 25.0 0.00 0.00 0.00 69 1004.4
20260901150049 61 230 21.0 26.0 0.00 0.00 0.00 68 1004.3
20260901144548 60 229 19.0 24.0 0.00 0.00 0.00 68 1004.3
20260901143049 60 245 19.0 26.0 0.00 0.00 0.00 69 1004.4
20260901141547 60 244 18.0 26.0 0.00 0.00 0.00 70 1004.4
20260901140058 60 240 19.0 28.0 0.00 0.00 0.00 69 1004.4
20260901134605 60 229 19.0 28.0 0.00 0.00 0.00 69 1004.3
20260901133050 60 231 20.0 27.0 0.00 0.00 0.00 69 1004.2
20260901131544 61 228 17.0 24.0 0.00 0.00 0.00 69 1004.0
20260901130044 61 231 17.0 22.0 0.00 0.00 0.00 69 1003.9
20260901124542 61 245 17.0 24.0 0.00 0.00 0.00 69 1003.7
20260901123037 61 238 18.0 23.0 0.00 0.00 0.00 68 1003.8
20260901121535 61 225 16.0 22.0 0.00 0.00 0.00 67 1003.8
20260901120048 61 232 16.0 23.0 0.00 0.00 0.00 65 1003.9
20260901114531 62 245 16.0 22.0 0.00 0.00 0.00 64 1004.0
20260901113033 62 223 15.0 19.0 0.00 0.00 0.00 63 1004.0
20260901111529 62 233 15.0 20.0 0.00 0.00 0.00 63 1003.9
20260901110029 62 240 14.0 19.0 0.00 0.00 0.00 61 1004.0
20260901104526 62 231 13.0 19.0 0.00 0.00 0.00 58 1004.1
20260901103026 62 238 15.0 19.0 0.00 0.00 0.00 55 1004.1
20260901101517 63 228 12.0 18.0 0.00 0.00 0.00 50 1004.1
20260901100015 63 236 11.0 16.0 0.00 0.00 0.00 48 1004.1
20260901094515 65 244 11.0 16.0 0.00 0.00 0.00 46 1004.0
20260901093012 65 233 10.0 15.0 0.00 0.00 0.00 45 1004.1